| time (UTC) | temp C | wind direction | speed KPH | gust KPH | rain 1hr cm | rain 24hr cm | rain mn cm | humidity % | barometer mb |
| 20260831103405 | 9 | 211 | 14.5 | 37.0 | 0.00 | 0.05 | 0.03 | 76 | 1005.8 |
| 20260831101404 | 10 | 178 | 9.7 | 32.2 | 0.00 | 0.05 | 0.03 | 75 | 1005.7 |
| 20260831100905 | 10 | 201 | 11.3 | 35.4 | 0.00 | 0.05 | 0.03 | 74 | 1005.7 |
| 20260831100404 | 10 | 193 | 19.3 | 32.2 | 0.00 | 0.05 | 0.03 | 74 | 1005.5 |
| 20260831095904 | 10 | 217 | 19.3 | 37.0 | 0.00 | 0.05 | 0.03 | 73 | 1005.3 |
| 20260831095405 | 10 | 224 | 11.3 | 33.8 | 0.00 | 0.05 | 0.03 | 74 | 1005.2 |
| 20260831094905 | 10 | 215 | 14.5 | 32.2 | 0.00 | 0.05 | 0.03 | 73 | 1005.1 |
| 20260831094404 | 10 | 210 | 20.9 | 56.3 | 0.00 | 0.05 | 0.03 | 73 | 1005.0 |
| 20260831093404 | 10 | 211 | 19.3 | 51.5 | 0.00 | 0.05 | 0.03 | 72 | 1004.8 |
| 20260831092904 | 11 | 193 | 16.1 | 37.0 | 0.00 | 0.05 | 0.03 | 71 | 1004.7 |
| 20260831092408 | 11 | 206 | 27.4 | 56.3 | 0.00 | 0.05 | 0.03 | 72 | 1004.4 |
| 20260831091906 | 11 | 214 | 16.1 | 46.7 | 0.00 | 0.05 | 0.03 | 71 | 1004.3 |
| 20260831091406 | 11 | 255 | 19.3 | 37.0 | 0.00 | 0.05 | 0.03 | 72 | 1004.1 |
| 20260831090905 | 10 | 216 | 20.9 | 41.8 | 0.00 | 0.05 | 0.03 | 72 | 1004.1 |
| 20260831090405 | 10 | 203 | 20.9 | 41.8 | 0.00 | 0.05 | 0.03 | 73 | 1004.0 |
| 20260831085905 | 10 | 304 | 19.3 | 41.8 | 0.00 | 0.05 | 0.03 | 74 | 1004.0 |
| 20260831085405 | 10 | 191 | 16.1 | 40.2 | 0.00 | 0.05 | 0.03 | 74 | 1003.8 |
| 20260831084905 | 10 | 198 | 22.5 | 45.1 | 0.00 | 0.05 | 0.03 | 74 | 1003.8 |
| 20260831084405 | 10 | 223 | 20.9 | 51.5 | 0.00 | 0.05 | 0.03 | 74 | 1003.7 |
| 20260831083404 | 10 | 241 | 19.3 | 41.8 | 0.00 | 0.05 | 0.03 | 78 | 1003.6 |
| 20260831082904 | 10 | 293 | 14.5 | 41.8 | 0.00 | 0.05 | 0.03 | 79 | 1003.7 |
| 20260831081904 | 10 | 218 | 19.3 | 51.5 | 0.03 | 0.05 | 0.03 | 80 | 1003.6 |
| 20260831081408 | 10 | 303 | 19.3 | 49.9 | 0.03 | 0.05 | 0.03 | 79 | 1003.4 |
| 20260831080905 | 10 | 282 | 20.9 | 41.8 | 0.03 | 0.05 | 0.03 | 78 | 1003.6 |
| 20260831080405 | 10 | 244 | 16.1 | 41.8 | 0.03 | 0.05 | 0.03 | 79 | 1003.5 |
| 20260831075904 | 10 | 228 | 20.9 | 53.1 | 0.03 | 0.05 | 0.03 | 79 | 1003.4 |
| 20260831074904 | 10 | 215 | 17.7 | 48.3 | 0.03 | 0.05 | 0.03 | 80 | 1003.2 |
| 20260831074405 | 10 | 215 | 14.5 | 40.2 | 0.03 | 0.05 | 0.03 | 81 | 1003.1 |
| 20260831073405 | 10 | 217 | 17.7 | 38.6 | 0.03 | 0.05 | 0.03 | 82 | 1003.0 |
| 20260831072905 | 10 | 212 | 20.9 | 45.1 | 0.03 | 0.05 | 0.03 | 81 | 1002.9 |
| 20260831072404 | 10 | 221 | 19.3 | 41.8 | 0.03 | 0.05 | 0.03 | 80 | 1002.9 |
| 20260831071905 | 10 | 205 | 20.9 | 40.2 | 0.00 | 0.05 | 0.00 | 80 | 1002.7 |
| 20260831071404 | 10 | 213 | 22.5 | 41.8 | 0.00 | 0.05 | 0.00 | 81 | 1002.7 |
| 20260831070905 | 9 | 235 | 20.9 | 56.3 | 0.00 | 0.05 | 0.00 | 82 | 1002.7 |
| 20260831065404 | 9 | 235 | 20.9 | 45.1 | 0.00 | 0.05 | 0.00 | 81 | 1002.7 |
| 20260831064405 | 10 | 247 | 25.7 | 53.1 | 0.00 | 0.05 | 0.00 | 79 | 1002.8 |
| 20260831063904 | 10 | 222 | 20.9 | 48.3 | 0.00 | 0.05 | 0.00 | 76 | 1002.8 |
| 20260831063404 | 10 | 211 | 14.5 | 37.0 | 0.00 | 0.05 | 0.00 | 75 | 1002.8 |
| 20260831062904 | 10 | 193 | 20.9 | 41.8 | 0.00 | 0.05 | 0.00 | 75 | 1002.7 |
| 20260831062404 | 10 | 225 | 20.9 | 41.8 | 0.00 | 0.05 | 0.00 | 74 | 1002.5 |
| 20260831061905 | 11 | 202 | 19.3 | 40.2 | 0.00 | 0.05 | 0.00 | 73 | 1002.5 |
| 20260831061404 | 11 | 203 | 32.2 | 57.9 | 0.00 | 0.05 | 0.00 | 72 | 1002.3 |
| 20260831060906 | 11 | 212 | 25.7 | 53.1 | 0.00 | 0.05 | 0.00 | 71 | 1002.5 |
| 20260831060405 | 11 | 220 | 25.7 | 51.5 | 0.00 | 0.05 | 0.00 | 71 | 1002.7 |
| 20260831055904 | 11 | 268 | 19.3 | 46.7 | 0.00 | 0.05 | 0.00 | 71 | 1002.4 |
| 20260831055404 | 11 | 202 | 24.1 | 46.7 | 0.00 | 0.05 | 0.00 | 71 | 1002.1 |
| 20260831054904 | 11 | 205 | 22.5 | 56.3 | 0.00 | 0.05 | 0.00 | 70 | 1002.1 |
| 20260831054404 | 11 | 207 | 25.7 | 56.3 | 0.00 | 0.05 | 0.00 | 70 | 1001.9 |
| 20260831053904 | 11 | 210 | 22.5 | 45.1 | 0.00 | 0.05 | 0.00 | 70 | 1001.7 |
| 20260831053404 | 12 | 218 | 24.1 | 45.1 | 0.00 | 0.05 | 0.00 | 69 | 1001.9 |
| 20260831052904 | 12 | 218 | 25.7 | 53.1 | 0.00 | 0.05 | 0.00 | 69 | 1001.8 |
| 20260831052404 | 12 | 219 | 24.1 | 53.1 | 0.00 | 0.05 | 0.00 | 70 | 1001.9 |
| 20260831051904 | 12 | 229 | 22.5 | 48.3 | 0.00 | 0.05 | 0.00 | 69 | 1002.0 |
| 20260831051404 | 12 | 216 | 24.1 | 56.3 | 0.00 | 0.05 | 0.00 | 69 | 1001.9 |
| 20260831050405 | 12 | 212 | 20.9 | 49.9 | 0.00 | 0.05 | 0.00 | 66 | 1001.9 |
| 20260831045904 | 12 | 195 | 29.0 | 53.1 | 0.00 | 0.05 | 0.00 | 67 | 1001.6 |
| 20260831045406 | 12 | 202 | 25.7 | 56.3 | 0.00 | 0.05 | 0.00 | 68 | 1001.7 |
| 20260831044904 | 12 | 198 | 25.7 | 46.7 | 0.00 | 0.05 | 0.00 | 70 | 1001.6 |
| 20260831044405 | 12 | 222 | 25.7 | 61.2 | 0.00 | 0.05 | 0.00 | 70 | 1001.7 |
| 20260831043904 | 12 | 210 | 27.4 | 69.2 | 0.00 | 0.05 | 0.00 | 71 | 1001.6 |
| 20260831043404 | 12 | 206 | 27.4 | 53.1 | 0.00 | 0.05 | 0.00 | 71 | 1001.4 |
| 20260831042904 | 12 | 204 | 27.4 | 53.1 | 0.00 | 0.05 | 0.00 | 71 | 1001.4 |
| 20260831042405 | 12 | 221 | 25.7 | 51.5 | 0.00 | 0.05 | 0.00 | 71 | 1001.5 |
| 20260831041904 | 13 | 231 | 22.5 | 40.2 | 0.00 | 0.05 | 0.00 | 71 | 1001.3 |
| 20260831041404 | 12 | 221 | 22.5 | 46.7 | 0.00 | 0.05 | 0.00 | 71 | 1001.4 |
| 20260831040905 | 12 | 202 | 25.7 | 57.9 | 0.00 | 0.05 | 0.00 | 70 | 1001.5 |
| 20260831040406 | 12 | 266 | 27.4 | 57.9 | 0.00 | 0.05 | 0.00 | 71 | 1001.3 |
| 20260831035905 | 12 | 249 | 25.7 | 57.9 | 0.00 | 0.05 | 0.00 | 73 | 1001.5 |
| 20260831035405 | 12 | 253 | 24.1 | 48.3 | 0.00 | 0.05 | 0.00 | 74 | 1001.6 |
| 20260831034904 | 12 | 221 | 20.9 | 37.0 | 0.00 | 0.05 | 0.00 | 74 | 1001.4 |
| 20260831034404 | 12 | 216 | 20.9 | 49.9 | 0.00 | 0.05 | 0.00 | 73 | 1001.4 |
| 20260831033904 | 12 | 217 | 22.5 | 56.3 | 0.00 | 0.05 | 0.00 | 73 | 1001.3 |
| 20260831033404 | 12 | 224 | 22.5 | 69.2 | 0.00 | 0.05 | 0.00 | 74 | 1001.4 |
| 20260831031404 | 12 | 213 | 22.5 | 59.5 | 0.00 | 0.05 | 0.00 | 74 | 1001.4 |
| 20260831030404 | 12 | 250 | 29.0 | 56.3 | 0.00 | 0.05 | 0.00 | 76 | 1001.2 |
| 20260831025404 | 12 | 216 | 22.5 | 62.8 | 0.00 | 0.05 | 0.00 | 76 | 1001.4 |
| 20260831024904 | 12 | 259 | 27.4 | 49.9 | 0.00 | 0.05 | 0.00 | 73 | 1001.2 |
| 20260831024405 | 13 | 259 | 25.7 | 56.3 | 0.00 | 0.05 | 0.00 | 69 | 1001.1 |
| 20260831022904 | 13 | 234 | 22.5 | 56.3 | 0.00 | 0.05 | 0.00 | 69 | 1000.7 |
| 20260831022404 | 14 | 207 | 27.4 | 56.3 | 0.00 | 0.05 | 0.00 | 69 | 1000.6 |
| 20260831021904 | 13 | 227 | 20.9 | 51.5 | 0.00 | 0.05 | 0.00 | 68 | 1000.7 |
| 20260831021404 | 14 | 218 | 25.7 | 48.3 | 0.00 | 0.05 | 0.00 | 67 | 1000.4 |
| 20260831020904 | 13 | 228 | 25.7 | 57.9 | 0.00 | 0.05 | 0.00 | 68 | 1000.6 |
| 20260831020404 | 13 | 214 | 22.5 | 70.8 | 0.00 | 0.05 | 0.00 | 69 | 1000.4 |
| 20260831015904 | 13 | 209 | 29.0 | 56.3 | 0.00 | 0.05 | 0.00 | 68 | 1000.5 |
| 20260831015404 | 13 | 218 | 27.4 | 53.1 | 0.00 | 0.05 | 0.00 | 68 | 1000.6 |
| 20260831014905 | 13 | 223 | 27.4 | 72.4 | 0.00 | 0.05 | 0.00 | 67 | 1000.3 |
| 20260831014404 | 14 | 213 | 25.7 | 56.3 | 0.00 | 0.05 | 0.00 | 69 | 1000.5 |
| 20260831013904 | 13 | 208 | 25.7 | 51.5 | 0.00 | 0.05 | 0.00 | 72 | 1000.7 |
| 20260831013404 | 13 | 198 | 22.5 | 49.9 | 0.00 | 0.05 | 0.00 | 73 | 1000.6 |
| 20260831012904 | 13 | 321 | 29.0 | 62.8 | 0.00 | 0.05 | 0.00 | 71 | 1000.3 |
| 20260831012405 | 13 | 228 | 29.0 | 78.9 | 0.00 | 0.05 | 0.00 | 71 | 1000.1 |
| 20260831011904 | 13 | 228 | 27.4 | 69.2 | 0.00 | 0.05 | 0.00 | 71 | 1000.2 |
| 20260831011404 | 13 | 213 | 24.1 | 53.1 | 0.00 | 0.05 | 0.00 | 73 | 1000.3 |
| 20260831010904 | 12 | 253 | 20.9 | 48.3 | 0.00 | 0.05 | 0.00 | 74 | 1000.3 |
| 20260831010404 | 12 | 300 | 29.0 | 61.2 | 0.00 | 0.05 | 0.00 | 76 | 1000.3 |
| 20260831005904 | 12 | 201 | 25.7 | 62.8 | 0.00 | 0.05 | 0.00 | 79 | 1000.5 |
| 20260831005405 | 13 | 287 | 25.7 | 53.1 | 0.00 | 0.05 | 0.00 | 77 | 1000.7 |
| 20260831004906 | 13 | 237 | 19.3 | 46.7 | 0.00 | 0.05 | 0.00 | 77 | 1000.6 |
| 20260831004405 | 13 | 274 | 20.9 | 41.8 | 0.00 | 0.05 | 0.00 | 76 | 1000.4 |
| 20260831003904 | 13 | 252 | 19.3 | 51.5 | 0.00 | 0.05 | 0.00 | 76 | 1000.6 |
| 20260831003404 | 13 | 257 | 19.3 | 51.5 | 0.00 | 0.05 | 0.00 | 76 | 1000.5 |
| 20260831002904 | 13 | 211 | 25.7 | 62.8 | 0.00 | 0.05 | 0.00 | 75 | 1000.5 |
| 20260831002405 | 13 | 300 | 25.7 | 62.8 | 0.00 | 0.05 | 0.00 | 75 | 1000.5 |
| 20260831001404 | 13 | 211 | 20.9 | 48.3 | 0.00 | 0.05 | 0.00 | 76 | 1001.0 |
| 20260831000905 | 13 | 270 | 22.5 | 49.9 | 0.00 | 0.05 | 0.00 | 77 | 1001.1 |
| 20260831000406 | 13 | 209 | 25.7 | 40.2 | 0.00 | 0.05 | 0.00 | 76 | 1000.9 |
| 20260830235905 | 13 | 274 | 22.5 | 48.3 | 0.00 | 0.05 | 0.00 | 76 | 1000.9 |
| 20260830235404 | 13 | 247 | 20.9 | 45.1 | 0.00 | 0.05 | 0.00 | 75 | 1000.7 |
| 20260830234904 | 13 | 293 | 29.0 | 56.3 | 0.00 | 0.05 | 0.00 | 73 | 1000.9 |
| 20260830234404 | 13 | 214 | 19.3 | 56.3 | 0.00 | 0.05 | 0.00 | 74 | 1000.8 |
| 20260830233904 | 13 | 304 | 24.1 | 46.7 | 0.00 | 0.05 | 0.00 | 73 | 1000.9 |
| 20260830233405 | 13 | 216 | 20.9 | 53.1 | 0.00 | 0.05 | 0.00 | 73 | 1000.8 |
| 20260830232904 | 13 | 232 | 19.3 | 41.8 | 0.00 | 0.05 | 0.00 | 73 | 1000.9 |
| 20260830232404 | 13 | 256 | 27.4 | 62.8 | 0.00 | 0.05 | 0.00 | 73 | 1000.9 |
| 20260830231904 | 13 | 209 | 22.5 | 46.7 | 0.00 | 0.05 | 0.00 | 75 | 1000.9 |
| 20260830231404 | 13 | 218 | 20.9 | 59.5 | 0.00 | 0.05 | 0.00 | 76 | 1000.9 |
| 20260830230408 | 13 | 265 | 25.7 | 53.1 | 0.00 | 0.05 | 0.00 | 74 | 1000.8 |
| 20260830225905 | 13 | 225 | 24.1 | 51.5 | 0.00 | 0.05 | 0.00 | 73 | 1000.9 |
| 20260830225405 | 13 | 235 | 20.9 | 41.8 | 0.00 | 0.05 | 0.00 | 73 | 1000.9 |
| 20260830224904 | 13 | 244 | 19.3 | 40.2 | 0.00 | 0.05 | 0.00 | 72 | 1001.0 |
| 20260830224404 | 13 | 206 | 25.7 | 48.3 | 0.00 | 0.05 | 0.00 | 72 | 1000.9 |
| 20260830223905 | 13 | 226 | 25.7 | 56.3 | 0.00 | 0.05 | 0.00 | 72 | 1001.0 |
| 20260830223405 | 13 | 207 | 19.3 | 57.9 | 0.00 | 0.05 | 0.00 | 73 | 1001.1 |
| 20260830222904 | 13 | 198 | 29.0 | 59.5 | 0.00 | 0.05 | 0.00 | 73 | 1001.1 |
| 20260830222405 | 13 | 202 | 27.4 | 49.9 | 0.00 | 0.05 | 0.00 | 75 | 1000.9 |
| 20260830221904 | 13 | 231 | 25.7 | 45.1 | 0.00 | 0.05 | 0.00 | 75 | 1000.8 |
| 20260830221405 | 13 | 242 | 27.4 | 41.8 | 0.00 | 0.05 | 0.00 | 75 | 1001.0 |
| 20260830220904 | 13 | 226 | 27.4 | 57.9 | 0.00 | 0.05 | 0.00 | 75 | 1000.7 |
| 20260830220405 | 13 | 248 | 25.7 | 61.2 | 0.00 | 0.05 | 0.00 | 76 | 1000.6 |
| 20260830215904 | 13 | 218 | 25.7 | 57.9 | 0.00 | 0.05 | 0.00 | 75 | 1000.5 |
| 20260830215404 | 12 | 232 | 22.5 | 41.8 | 0.00 | 0.05 | 0.00 | 75 | 1000.4 |
| 20260830214905 | 13 | 203 | 22.5 | 41.8 | 0.00 | 0.05 | 0.00 | 75 | 1001.0 |
| 20260830214404 | 13 | 246 | 19.3 | 51.5 | 0.00 | 0.05 | 0.00 | 75 | 1000.9 |
| 20260830213905 | 13 | 214 | 19.3 | 57.9 | 0.00 | 0.05 | 0.00 | 74 | 1001.1 |
| 20260830213405 | 13 | 299 | 25.7 | 59.5 | 0.00 | 0.05 | 0.00 | 73 | 1001.0 |
| 20260830212904 | 12 | 202 | 22.5 | 49.9 | 0.00 | 0.05 | 0.00 | 74 | 1000.9 |
| 20260830212404 | 12 | 199 | 20.9 | 45.1 | 0.00 | 0.05 | 0.00 | 75 | 1001.4 |
| 20260830211404 | 12 | 213 | 19.3 | 40.2 | 0.00 | 0.05 | 0.00 | 78 | 1001.3 |
| 20260830210904 | 12 | 243 | 14.5 | 45.1 | 0.00 | 0.05 | 0.00 | 79 | 1001.4 |
| 20260830210404 | 12 | 212 | 22.5 | 51.5 | 0.00 | 0.05 | 0.00 | 79 | 1001.5 |
| 20260830205905 | 12 | 210 | 24.1 | 53.1 | 0.00 | 0.05 | 0.00 | 77 | 1001.5 |
| 20260830205404 | 12 | 207 | 19.3 | 57.9 | 0.00 | 0.05 | 0.00 | 76 | 1001.2 |
| 20260830204904 | 12 | 224 | 25.7 | 56.3 | 0.00 | 0.05 | 0.00 | 76 | 1001.6 |
| 20260830204404 | 12 | 211 | 20.9 | 59.5 | 0.00 | 0.05 | 0.00 | 75 | 1001.5 |
| 20260830203904 | 12 | 215 | 14.5 | 48.3 | 0.00 | 0.05 | 0.00 | 75 | 1001.6 |
| 20260830203405 | 12 | 258 | 20.9 | 48.3 | 0.00 | 0.05 | 0.00 | 75 | 1001.7 |
| 20260830202904 | 12 | 199 | 16.1 | 48.3 | 0.00 | 0.05 | 0.00 | 75 | 1001.6 |
| 20260830202405 | 12 | 176 | 19.3 | 48.3 | 0.00 | 0.05 | 0.00 | 76 | 1001.6 |
| 20260830201905 | 12 | 188 | 20.9 | 53.1 | 0.00 | 0.05 | 0.00 | 77 | 1001.5 |
| 20260830201406 | 12 | 210 | 27.4 | 57.9 | 0.00 | 0.05 | 0.00 | 77 | 1001.5 |
| 20260830200905 | 12 | 209 | 22.5 | 51.5 | 0.00 | 0.05 | 0.00 | 78 | 1001.3 |
| 20260830200404 | 12 | 206 | 20.9 | 49.9 | 0.00 | 0.05 | 0.00 | 78 | 1001.0 |
| 20260830195904 | 12 | 250 | 25.7 | 48.3 | 0.00 | 0.05 | 0.00 | 78 | 1000.9 |
| 20260830195404 | 12 | 184 | 22.5 | 56.3 | 0.00 | 0.05 | 0.00 | 77 | 1001.0 |
| 20260830194904 | 12 | 218 | 20.9 | 56.3 | 0.00 | 0.05 | 0.00 | 78 | 1001.1 |
| 20260830194408 | 12 | 227 | 25.7 | 61.2 | 0.00 | 0.05 | 0.00 | 78 | 1001.0 |
| 20260830193905 | 12 | 250 | 20.9 | 46.7 | 0.00 | 0.05 | 0.00 | 78 | 1001.0 |
| 20260830192904 | 11 | 211 | 16.1 | 46.7 | 0.00 | 0.05 | 0.00 | 78 | 1001.0 |
| 20260830192405 | 11 | 215 | 16.1 | 38.6 | 0.00 | 0.05 | 0.00 | 78 | 1001.0 |
| 20260830191905 | 11 | 305 | 17.7 | 41.8 | 0.00 | 0.05 | 0.00 | 78 | 1001.0 |
| 20260830190904 | 11 | 210 | 25.7 | 61.2 | 0.00 | 0.05 | 0.00 | 79 | 1000.8 |
| 20260830190404 | 11 | 212 | 22.5 | 48.3 | 0.00 | 0.05 | 0.00 | 80 | 1000.9 |
| 20260830185404 | 11 | 271 | 19.3 | 46.7 | 0.00 | 0.05 | 0.00 | 81 | 1000.9 |
| 20260830184404 | 11 | 231 | 22.5 | 38.6 | 0.00 | 0.05 | 0.00 | 81 | 1000.7 |
| 20260830183404 | 11 | 235 | 22.5 | 62.8 | 0.00 | 0.05 | 0.00 | 81 | 1000.8 |
| 20260830182904 | 11 | 221 | 22.5 | 49.9 | 0.00 | 0.05 | 0.00 | 81 | 1000.6 |
| 20260830182404 | 11 | 215 | 24.1 | 45.1 | 0.00 | 0.05 | 0.00 | 81 | 1000.7 |
| 20260830181904 | 11 | 207 | 19.3 | 40.2 | 0.00 | 0.05 | 0.00 | 81 | 1000.4 |
| 20260830181405 | 11 | 196 | 22.5 | 51.5 | 0.00 | 0.05 | 0.00 | 80 | 1000.6 |
| 20260830180904 | 11 | 221 | 19.3 | 46.7 | 0.00 | 0.05 | 0.00 | 80 | 1000.5 |
| 20260830180404 | 11 | 209 | 22.5 | 53.1 | 0.00 | 0.05 | 0.00 | 79 | 1000.5 |
| 20260830175904 | 11 | 222 | 17.7 | 41.8 | 0.00 | 0.05 | 0.00 | 81 | 1000.5 |
| 20260830175404 | 11 | 264 | 19.3 | 53.1 | 0.00 | 0.05 | 0.00 | 81 | 1000.5 |
| 20260830174904 | 12 | 214 | 24.1 | 56.3 | 0.00 | 0.05 | 0.00 | 81 | 1000.0 |
| 20260830174404 | 12 | 352 | 22.5 | 45.1 | 0.00 | 0.05 | 0.00 | 82 | 1000.0 |
| 20260830173904 | 12 | 218 | 20.9 | 61.2 | 0.00 | 0.05 | 0.00 | 83 | 1000.0 |
| 20260830173404 | 12 | 242 | 16.1 | 40.2 | 0.00 | 0.05 | 0.00 | 83 | 999.7 |
| 20260830172904 | 11 | 253 | 25.7 | 45.1 | 0.00 | 0.05 | 0.00 | 83 | 999.8 |
| 20260830172404 | 11 | 332 | 20.9 | 38.6 | 0.00 | 0.05 | 0.00 | 84 | 999.9 |
| 20260830171904 | 11 | 253 | 19.3 | 53.1 | 0.00 | 0.05 | 0.00 | 83 | 1000.3 |
| 20260830170904 | 11 | 305 | 25.7 | 56.3 | 0.00 | 0.05 | 0.00 | 82 | 1000.4 |
| 20260830170404 | 11 | 209 | 19.3 | 37.0 | 0.00 | 0.05 | 0.00 | 82 | 1000.4 |
| 20260830165904 | 12 | 263 | 25.7 | 40.2 | 0.00 | 0.05 | 0.00 | 80 | 1000.5 |
| 20260830165404 | 12 | 217 | 19.3 | 48.3 | 0.00 | 0.05 | 0.00 | 79 | 1000.4 |
| 20260830164404 | 12 | 273 | 22.5 | 53.1 | 0.00 | 0.05 | 0.00 | 79 | 1000.2 |
| 20260830163904 | 12 | 236 | 19.3 | 41.8 | 0.00 | 0.05 | 0.00 | 81 | 1000.5 |
| 20260830162904 | 11 | 234 | 16.1 | 38.6 | 0.00 | 0.08 | 0.00 | 80 | 1000.8 |
| 20260830162404 | 12 | 229 | 17.7 | 37.0 | 0.00 | 0.08 | 0.00 | 79 | 1000.8 |
| 20260830161408 | 12 | 217 | 20.9 | 41.8 | 0.00 | 0.08 | 0.00 | 78 | 1000.8 |
| 20260830160905 | 12 | 222 | 14.5 | 59.5 | 0.00 | 0.08 | 0.00 | 77 | 1001.1 |
| 20260830160404 | 12 | 217 | 27.4 | 56.3 | 0.00 | 0.08 | 0.00 | 77 | 1000.7 |
| 20260830155904 | 11 | 200 | 16.1 | 49.9 | 0.00 | 0.08 | 0.00 | 78 | 1000.9 |
| 20260830155404 | 11 | 269 | 16.1 | 37.0 | 0.00 | 0.08 | 0.00 | 78 | 1000.9 |
| 20260830154904 | 11 | 319 | 19.3 | 49.9 | 0.00 | 0.08 | 0.00 | 78 | 1000.9 |
| 20260830154404 | 11 | 204 | 25.7 | 41.8 | 0.00 | 0.08 | 0.00 | 78 | 1001.1 |
| 20260830153904 | 11 | 257 | 20.9 | 48.3 | 0.00 | 0.08 | 0.00 | 78 | 1001.0 |
| 20260830152904 | 11 | 232 | 19.3 | 40.2 | 0.00 | 0.08 | 0.00 | 78 | 1001.3 |
| 20260830152405 | 11 | 208 | 25.7 | 53.1 | 0.00 | 0.08 | 0.00 | 78 | 1001.3 |
| 20260830151904 | 11 | 205 | 11.3 | 35.4 | 0.00 | 0.08 | 0.00 | 77 | 1001.4 |
| 20260830151404 | 11 | 206 | 14.5 | 56.3 | 0.00 | 0.08 | 0.00 | 77 | 1001.3 |
| 20260830150904 | 11 | 280 | 17.7 | 38.6 | 0.00 | 0.08 | 0.00 | 76 | 1001.7 |
| 20260830150403 | 11 | 199 | 19.3 | 41.8 | 0.00 | 0.08 | 0.00 | 75 | 1001.6 |
| 20260830145904 | 11 | 213 | 14.5 | 25.7 | 0.00 | 0.08 | 0.00 | 75 | 1001.7 |
| 20260830145404 | 11 | 206 | 19.3 | 46.7 | 0.00 | 0.08 | 0.00 | 76 | 1001.6 |
| 20260830144904 | 11 | 227 | 14.5 | 32.2 | 0.00 | 0.08 | 0.00 | 76 | 1001.8 |
| 20260830144404 | 11 | 224 | 11.3 | 38.6 | 0.00 | 0.08 | 0.00 | 75 | 1001.9 |
| 20260830142904 | 11 | 295 | 14.5 | 29.0 | 0.00 | 0.08 | 0.00 | 75 | 1002.1 |
| 20260830142404 | 11 | 225 | 12.9 | 45.1 | 0.00 | 0.08 | 0.00 | 74 | 1002.3 |
| 20260830141904 | 11 | 208 | 14.5 | 40.2 | 0.00 | 0.08 | 0.00 | 75 | 1002.4 |
| 20260830141404 | 11 | 303 | 14.5 | 37.0 | 0.00 | 0.08 | 0.00 | 74 | 1002.5 |
| 20260830140904 | 11 | 199 | 14.5 | 32.2 | 0.00 | 0.08 | 0.00 | 74 | 1002.5 |
| 20260830140404 | 11 | 262 | 16.1 | 41.8 | 0.00 | 0.08 | 0.00 | 74 | 1002.3 |
| 20260830135904 | 11 | 212 | 16.1 | 48.3 | 0.00 | 0.08 | 0.00 | 75 | 1002.5 |
| 20260830135405 | 11 | 213 | 16.1 | 38.6 | 0.00 | 0.08 | 0.00 | 75 | 1002.4 |
| 20260830134904 | 11 | 230 | 12.9 | 37.0 | 0.00 | 0.08 | 0.00 | 75 | 1002.4 |
| 20260830133905 | 11 | 184 | 14.5 | 32.2 | 0.00 | 0.08 | 0.00 | 75 | 1002.5 |
| 20260830133403 | 11 | 223 | 4.8 | 32.2 | 0.00 | 0.08 | 0.00 | 75 | 1002.5 |
| 20260830132403 | 11 | 208 | 14.5 | 38.6 | 0.00 | 0.08 | 0.00 | 74 | 1002.5 |
| 20260830130904 | 11 | 204 | 16.1 | 40.2 | 0.00 | 0.08 | 0.00 | 75 | 1002.4 |
| 20260830130404 | 11 | 191 | 16.1 | 33.8 | 0.00 | 0.08 | 0.00 | 75 | 1002.3 |
| 20260830125907 | 11 | 214 | 12.9 | 35.4 | 0.05 | 0.08 | 0.00 | 75 | 1002.3 |
| 20260830125406 | 11 | 195 | 17.7 | 40.2 | 0.05 | 0.08 | 0.00 | 75 | 1002.2 |
| 20260830124907 | 11 | 203 | 16.1 | 35.4 | 0.05 | 0.08 | 0.00 | 76 | 1002.1 |
| 20260830123906 | 11 | 281 | 22.5 | 41.8 | 0.05 | 0.08 | 0.00 | 76 | 1002.1 |
| 20260830123406 | 11 | 287 | 8.0 | 27.4 | 0.05 | 0.08 | 0.00 | 77 | 1002.3 |
| 20260830122906 | 11 | 208 | 17.7 | 38.6 | 0.05 | 0.08 | 0.00 | 77 | 1002.2 |
| 20260830121906 | 11 | 196 | 17.7 | 41.8 | 0.05 | 0.08 | 0.00 | 77 | 1002.1 |
| 20260830121406 | 11 | 315 | 11.3 | 35.4 | 0.05 | 0.08 | 0.00 | 76 | 1002.2 |
| 20260830120906 | 11 | 207 | 14.5 | 38.6 | 0.05 | 0.08 | 0.00 | 76 | 1002.2 |
| 20260830115906 | 11 | 206 | 14.5 | 29.0 | 0.00 | 0.05 | 0.05 | 75 | 1002.1 |
| 20260830115407 | 11 | 218 | 16.1 | 41.8 | 0.00 | 0.05 | 0.05 | 74 | 1002.2 |
| 20260830114906 | 11 | 227 | 14.5 | 38.6 | 0.00 | 0.05 | 0.05 | 75 | 1002.3 |
| 20260830114407 | 11 | 199 | 14.5 | 32.2 | 0.00 | 0.05 | 0.05 | 74 | 1002.3 |
| 20260830113907 | 11 | 283 | 14.5 | 40.2 | 0.00 | 0.05 | 0.05 | 74 | 1002.4 |
| 20260830112906 | 11 | 237 | 14.5 | 32.2 | 0.00 | 0.05 | 0.05 | 74 | 1002.5 |
| 20260830112407 | 11 | 209 | 14.5 | 32.2 | 0.00 | 0.05 | 0.05 | 75 | 1002.5 |
| 20260830111907 | 11 | 205 | 19.3 | 37.0 | 0.00 | 0.05 | 0.05 | 74 | 1002.4 |
| 20260830111406 | 11 | 203 | 16.1 | 48.3 | 0.00 | 0.05 | 0.05 | 74 | 1002.3 |
| 20260830110907 | 11 | 219 | 14.5 | 38.6 | 0.00 | 0.05 | 0.05 | 74 | 1002.4 |
| 20260830105906 | 11 | 220 | 17.7 | 48.3 | 0.00 | 0.05 | 0.05 | 75 | 1002.3 |
| 20260830105406 | 11 | 226 | 16.1 | 37.0 | 0.00 | 0.05 | 0.05 | 75 | 1002.1 |
| 20260830104907 | 11 | 325 | 12.9 | 24.1 | 0.00 | 0.05 | 0.05 | 75 | 1002.2 |
| 20260830104407 | 11 | 228 | 11.3 | 38.6 | 0.00 | 0.05 | 0.05 | 75 | 1002.2 |
| 20260830103906 | 11 | 238 | 16.1 | 38.6 | 0.00 | 0.05 | 0.05 | 74 | 1002.1 |